#timestamp,LO_Frequency,Hit,StdDev 
1603244475.6,286046996.3,P
1603244495.4,286046993.3,P
1603244515.2,286046995.8,N
1603244535.1,286046993.3,Y
1603244536.0,286046993.3,P
1603244555.8,286047001.2,N
1603244575.7,286046999.6,N
1603244595.5,286046998.4,N
1603244615.3,286047001.0,N
1603244635.2,286046999.0,N
1603244655.0,286046998.6,N
1603244655.9,286046998.6,N
1603244675.7,286046999.2,N
1603244695.6,286046999.3,N
1603244715.4,286047000.0,N
1603244735.3,286046999.0,N
1603244755.1,286046998.4,N
1603244775.8,286047001.5,N
1603244795.7,286047002.7,N
1603244815.5,286047001.0,N
1603244835.3,286046998.4,N
1603244855.2,286046996.7,N
1603244875.0,286046998.1,N
1603244875.9,286046998.1,N
1603244895.8,286047000.5,N
1603244915.6,286047000.2,N
1603244935.4,286047002.8,N
1603244955.3,286047002.4,N
1603244975.1,286046998.4,N
1603244995.9,286046998.1,N
1603245015.7,286046998.3,N
1603245035.5,286046999.4,N
1603245055.4,286046998.6,N
1603245075.2,286046996.6,N
1603245095.0,286046998.9,N
1603245095.9,286046998.9,N
1603245115.8,286046998.1,N
1603245135.6,286046998.2,N
1603245155.5,286046998.2,N
1603245175.3,286046998.3,N
1603245195.1,286046998.5,N
1603245215.9,286046998.8,N
1603245235.7,286046998.4,N
1603245255.5,286047001.0,N
1603245275.4,286047000.8,N
1603245295.2,286046998.2,N
1603245315.1,286047002.3,N
1603245316.0,286047002.3,N
1603245335.8,286047002.5,N
1603245355.6,286047003.9,N
1603245375.5,286047003.5,N
1603245395.3,286047004.2,N
1603245415.1,286047005.7,N
1603245435.9,286047003.0,N
1603245455.7,286047006.8,N
1603245475.6,286047006.2,N
1603245495.4,286047006.6,N
1603245515.2,286047006.1,N
1603245535.1,286047006.6,N
1603245536.0,286047006.6,N
1603245555.8,286047006.2,N
1603245575.7,286047006.1,N
1603245595.5,286047008.7,N
